CZ-6A DEB, 54570

Orbit data source: Space-Track

CZ-6A DEB, 54570 is space debris in SSO originally from a launch on Fri, 11 Nov 2022 UTC launched from the Taiyaun Space Center, China (TSC). Debris objects in space refer to the collection of defunct objects orbiting the Earth. Examples of debris include non-operational satellites, rocket bodies, and fragments generated from explosions, collisions, or faulty payload assembly.

Loading next visibility...
Identifier
54570, 2022-151LW
Orbit
SSO
Country
Flag of CNCN / PRC
Related business
Manufacturer
SAST
Mission
Spacecraft
Bus & Motor
Unknown
Mass
Unknown
Launch date (UTC)
2022-11-11 (4 years ago)
Launch vehicle
Unknown
Launch site
Taiyaun Space Center, China (TSC)
Object type
Payload
Rocket body
Debris
Shape & HBR
Unknown shape, 0.1 m
Radar Cross Section
Small (<0.1 m²)

Expand to show TLE details & history
Last TLE update: 2 days ago

TLE from 2 days ago
0 CZ-6A DEB
1 54570U 22151LW  26171.01851095  .00000426  00000-0  19819-3 0  9991
2 54570  98.7579 197.4332 0032913 346.5492  13.4807 14.25439249186975
Epoch: 2026-06-20T00:26Z
TLE epoch observation values (Epoch: 2026-06-20T00:26:39.346Z)
Latitude
0.00002°
Longitude
-77.4699°
Altitude
786.939 km
Speed
7.472 km/s
True Right ascension
13h 09m 43s
True Declination
0° 00' 00"
Sunlit
Object was in daylight at epoch
Visualization orbit readout
Latitude
Unknown
Longitude
Unknown
Altitude
Unknown
Speed
Unknown
Apparent Right ascension
Unknown
Apparent Declination
Unknown
Sunlit
N/A
Visualization observer readout
Local Sidereal Time
21:25:00
Azimuth
Unknown
Elevation
Unknown
Doppler factor
Unknown
Orbital elements
Apogee altitude
827.809 km
Perigee altitude
780.531 km
Semi-major axis
7,182.307 km
Eccentricity
0.00329
Inclination
98.7579°
RAAN
197.4332°
Arg. of periapsis
346.5492°
True anomaly
13.56897°
Mean anomaly
13.4807°
Eccentric anomaly
13.5248°
Mean motion
3.56572 °/min
Orbital period
100.96 mins
BSTAR
0.00019819
Loading maneuver chart data...
Computing Atmospheric mass density...
Loading historical data...
Loading historical data...
Loading historical data...
Loading historical data...
Loading historical data...
Loading historical data...
Loading historical data...

Documentation

Showing up to 5 results
|